[keps] orb08128.2l.amsat

Ray Hoad r.hoad at att.net
Wed May 7 08:46:47 PDT 2008


SB KEPS @ AMSAT  $ORB08128.N
2Line Orbital Elements 08128.AMSAT

HR AMSAT ORBITAL ELEMENTS FOR AMATEUR SATELLITES IN NASA FORMAT
FROM WA5QGD FORT WORTH,TX May 7, 2008
Send Subscribe/unsubscribe to KEPS at 
http://www.amsat.org/mailman/listinfo/keps
BID: ORB08128.N

DECODE 2-LINE ELSETS WITH THE FOLLOWING KEY:
1 AAAAAU 00  0  0 BBBBB.BBBBBBBB  .CCCCCCCC  00000-0  00000-0 0  DDDZ
2 AAAAA EEE.EEEE FFF.FFFF GGGGGGG HHH.HHHH III.IIII JJ.JJJJJJJJKKKKKZ
KEY: A-CATALOGNUM B-EPOCHTIME C-DECAY D-ELSETNUM E-INCLINATION F-RAAN
G-ECCENTRICITY H-ARGPERIGEE I-MNANOM J-MNMOTION K-ORBITNUM Z-CHECKSUM

TO ALL RADIO AMATEURS BT

AO-07
1 07530U 74089B   08127.95384232 -.00000027  00000-0  10000-3 0 01713
2 07530 101.4689 160.8246 0011917 343.8693 016.1991 12.53573789531813
AO-10
1 14129U 83058B   08126.50483301  .00000198  00000-0  10000-3 0  5035
2 14129 025.9362 216.9437 5999433 121.1126 311.0439 02.05867746187220
UO-11
1 14781U 84021B   08127.59642208  .00000304  00000-0  47822-4 0 06621
2 14781 098.1570 161.0023 0008725 201.0807 159.0070 14.79640251297702
RS-15
1 23439U 94085A   08127.68341596 -.00000039  00000-0  10000-3 0 01413
2 23439 064.8166 202.1607 0148831 130.8709 230.5219 11.27551801550288
FO-29
1 24278U 96046B   08127.92983011 -.00000120  00000-0 -83539-4 0 07703
2 24278 098.5888 049.6115 0350482 322.5271 035.1894 13.52936799578814
SO-33
1 25509U 98061B   08127.53098321  .00000210  00000-0  31286-4 0 01926
2 25509 031.4307 191.8808 0354458 022.9937 338.6165 14.28213913497654
AO-40
1 26609U 00072B   08126.61303281 -.00000074  00000-0  10000-3 0   529
2 26609 007.5023 084.0929 7913593 078.4912 352.4791 01.25580755 34503
VO-52
1 28650U 05017B   08127.80035798 -.00000125  00000-0 -91611-5 0 09232
2 28650 097.7908 195.5409 0025942 275.8090 084.0168 14.81456883162474
PO-63
1 29712U 07001D   08128.25766293  .00000678  00000-0  95991-4 0  4249
2 29712 097.8773 187.2084 0014775 149.8384 210.3678 14.80137178 71415
AO-16
1 20439U 90005D   08127.56042894  .00000024  00000-0  24132-4 0 03141
2 20439 098.2278 109.7572 0010284 305.6989 054.3230 14.31792579954960
LO-19
1 20442U 90005G   08127.89412685  .00000077  00000-0  43890-4 0 02419
2 20442 098.1995 118.7340 0011123 301.2435 058.7657 14.32031366955168
AO-27
1 22825U 93061C   08127.61630396  .00000060  00000-0  40090-4 0 09634
2 22825 098.3815 089.2047 0008876 029.7879 330.3804 14.29238208761831
IO-26
1 22826U 93061D   08128.44752014 -.00000007  00000-0  13478-4 0  6672
2 22826 098.3736 090.9322 0009547 023.0564 337.1043 14.29486431762040
PO-28
1 22829U 93061G   08127.47452566  .00000055  00000-0  37367-4 0  9371
2 22829 098.3612 091.1082 0010057 359.0921 001.0248 14.30188341762167
GO-32
1 25397U 98043D   08127.76997882  .00000131  00000-0  76003-4 0  5928
2 25397 098.3666 164.9710 0001596 038.4904 321.6386 14.23143431510329
MO-46
1 26548U 00057D   08127.63489092  .00000017  00000-0  20194-4 0   906
2 26548 064.5576 258.8481 0025348 330.0304 029.9330 14.83256815411657
NO-44
1 26931U 01043C   08127.79690555  .00000047  00000-0  50721-4 0 08723
2 26931 067.0552 031.2830 0006124 278.6872 081.3514 14.29522163344499
SO-50
1 27607U 02058C   08128.49748774  .00000048  00000-0  29489-4 0  5967
2 27607 064.5587 177.2134 0084411 287.2392 071.9472 14.71352233288981
CO-55
1 27844U 03031E   08127.74012880  .00000053  00000-0  44849-4 0 02994
2 27844 098.7161 136.5828 0008946 233.4762 126.5573 14.20577270251558
CO-57
1 27848U 03031J   08128.01441475  .00000032  00000-0  35214-4 0  2505
2 27848 098.7163 135.9566 0008928 238.4055 121.6247 14.20386239251564
AO-51
1 28375U 04025K   08127.58348568  .00000015  00000-0  17514-4 0 00934
2 28375 098.0746 154.4884 0083425 279.7448 079.4332 14.40606030202419
CO-56
1 28941U 06005C   08128.36747961  .00037670  28394-5  29153-3 0   322
2 28941 098.1059 233.5557 0173428 189.0165 170.8006 15.54786064123692
CP4
1 31122U 07012F   08127.69803382  .00000553  00000-0  13192-3 0  3307
2 31122 098.0458 194.8269 0087045 097.8210 263.2858 14.55121404 56041
CP3
1 31128U 07012M   08127.71148785 -.00000046  00000-0  00000-0 0 03258
2 31128 098.0426 192.8995 0104338 103.1063 258.1820 14.51942273055916
LIBERT
1 31129U 07012N   08128.10167113  .00000340  00000-0  89029-4 0  9455
2 31129 098.0400 193.3090 0103508 101.6729 259.6098 14.52032754 55953
NOAA-10
1 16969U 86073A   08128.14659574  .00000110  00000-0  63304-4 0  1078
2 16969 098.7231 150.1945 0011759 304.7168 055.2891 14.27359101125584
NOAA-11
1 19531U 88089A   08128.22228058  .00000175  00000-0  11327-3 0  1510
2 19531 098.7962 218.1180 0011468 181.1406 178.9743 14.14871459 12112
NOAA-12
1 21263U 91032A   08128.21159142 -.00000019  00000-0  11002-4 0  6584
2 21263 098.7652 130.1679 0011478 242.7469 117.2558 14.25530095882556
MET-3/5
1 21655U 91056A   08127.94186198  .00000051  00000-0  10000-3 0 04663
2 21655 082.5530 133.5253 0014721 113.7041 246.5628 13.17015078804152
MET-2/21
1 22782U 93055A   08127.55626963  .00000052  00000-0  33108-4 0 01373
2 22782 082.5452 144.6046 0023899 049.5309 310.7923 13.83627367741378
OKEAN-4
1 23317U 94066A   08127.75286069  .00000289  00000-0  32946-4 0 05816
2 23317 082.5409 353.7366 0020462 263.9532 095.9344 14.82607810732141
NOAA-14
1 23455U 94089A   08128.35763624 -.00000244  00000-0 -10499-3 0  1310
2 23455 098.9472 200.5726 0008537 259.1077 100.9142 14.13739236688587
SICH-1
1 23657U 95046A   08127.74751964  .00000237  00000-0  27097-4 0  3768
2 23657 082.5251 134.7170 0022088 255.8779 103.9975 14.81575120684088
NOAA-15
1 25338U 98030A   08128.20271809  .00000102  00000-0  62085-4 0  4532
2 25338 098.5526 121.1071 0010998 155.8604 204.3076 14.24699348518968
RESURS
1 25394U 98043A   08127.72759763  .00000020  00000-0  26746-4 0 09251
2 25394 098.3902 173.5677 0001609 000.1917 359.9262 14.24158542510543
FENGYUN1
1 25730U 99025A   08127.97432368 -.00000372  00000-0 -19443-3 0 04175
2 25730 098.7236 105.1584 0020294 293.2720 066.6312 14.07706827463166
OKEAN-0
1 25860U 99039A   08127.55813170  .00000056  00000-0  15844-4 0  3596
2 25860 097.7487 119.9526 0001893 062.5029 297.6381 14.73519169473267
NOAA-16
1 26536U 00055A   08128.19287526 -.00000201  00000-0 -83649-4 0  9204
2 26536 099.1545 116.4749 0010324 346.3600 013.7299 14.12477797392982
NOAA-17
1 27453U 02032A   08128.36843251  .00000088  00000-0  57022-4 0  9142
2 27453 098.5363 194.1712 0011134 222.9450 137.0883 14.23970990304995
NOAA-18
1 28654U 05018A   08128.35463111 -.00000242  00000-0 -10972-3 0  4168
2 28654 098.8660 069.7911 0015418 070.1978 290.0846 14.11158673152710
HUBBLE
1 20580U 90037B   08127.50330980  .00000363  00000-0  15273-4 0  1299
2 20580 028.4697 235.0895 0003648 296.6025 063.4189 15.00375124788716
UARS
1 21701U 91063B   08128.57502410  .00006738  00000-0  10118-3 0  3580
2 21701 056.9742 338.5651 0090859 102.3893 258.7358 15.51649378916197
PO-34
1 25520U 98064B   08127.95264441  .00000477  00000-0  13681-4 0 09883
2 25520 028.4588 094.8357 0005563 193.8015 166.2426 15.17186025526896
ISS
1 25544U 98067A   08128.54347067  .00017179  00000-0  11135-3 0  4337
2 25544 051.6413 225.8681 0006638 178.6243 300.5860 15.76130244542116
OO-38
1 26063U 00004C   08128.31737591 -.00000033  00000-0  89396-5 0  2042
2 26063 100.1933 195.5384 0036763 325.2788 034.5991 14.35834053433705
UWE-1
1 28892U 05043C   08127.74754259  .00000112  00000-0  33094-4 0   406
2 28892 098.1013 022.3710 0017365 175.0574 185.0814 14.59623593134551
CO-58
1 28895U 05043F   08127.71660357  .00000074  00000-0  25138-4 0 00150
2 28895 098.1042 022.6822 0017735 175.1886 184.9492 14.59664068134430
NCUBE2
1 28897U 05043H   08127.20617254  .00000130  00000-0  36821-4 0 05445
2 28897 098.1008 022.1148 0016842 178.2933 181.8325 14.59834144126644
FCAL
1 29667U 06055J   08128.55157881  .00274627  11895-4  12388-3 0  9356
2 29667 051.6222 164.3946 0001657 003.4110 356.6912 16.21525018 80013
FALCON
1 30776U 07006E   08127.92397847  .00000480  00000-0  38080-4 0 03082
2 30776 035.4334 043.7400 0001682 351.6938 008.3754 15.02976193063938
MAST
1 31126U 07012K   08127.72869422 -.00000091  00000-0 -10198-4 0 03204
2 31126 098.0414 193.8138 0095919 100.3673 260.8366 14.53420044055993
CAPE1
1 31130U 07012P   08127.77565398  .00000136  00000-0  41984-4 0 03002
2 31130 098.0429 192.9658 0103995 102.8233 258.4597 14.51959971055717
/EX






More information about the Keps mailing list